DECAYED
Showing default

FLOCK 4Y 26, 55070 (Decayed)

Orbit data source: Space-Track

FLOCK 4Y 26, 55070 was a payload satellite owned by Planet (US) in LEO that was launched on Tue, 03 Jan 2023 UTC via an FALCON 9 launch vehicle from the Air Force Eastern Test Range (AFETR). Payload-class satellites include a variety of spacecraft equipped with specific instruments for various scientific and technological missions. These include communications satellites like Starlink; space stations such as the ISS; scientific satellites like the Hubble; Earth observation satellites from companies like Planet Labs, Umbra, and HawkEye 360; GPS; miniature CubeSats for education and research; and military/defense satellites.

Not visible in the next 10 days
Identifier
55070, 2023-001BP
Orbit
Decayed
Country
Flag of USUS
Related business
Manufacturer
Planet
Mission
Decayed Commercial Imaging
Bus & Motor
CUBESAT 3U, Unknown motor
Mass
5.7 kg wet, 5.7 kg dry
Launch date (UTC)
2023-01-03 (3 years ago)
Launch vehicle
FALCON 9
Launch site
Air Force Eastern Test Range (AFETR)
Object type
Payload
Rocket body
Debris
Shape & HBR
Box + 2 Pan, 1.0 m
Radar Cross Section
0.108 m², Medium (>0.1 m² and < 1m²)

Expand to show TLE details & history
Last TLE update: 3 months ago

TLE from 3 months ago
0 FLOCK 4Y 26
1 55070U 23001BP  25206.87286429  .07006776  24650-5  14558-2 0  9994
2 55070  97.3455 284.6067 0016879 270.7280  89.2080 16.30639702143251
Epoch: 2025-07-25T20:56Z
TLE epoch observation values (Epoch: 2025-07-25T20:56:55.474Z)
Latitude
-0.00009°
Longitude
26.55795°
Altitude
193.927 km
Speed
7.79 km/s
True Right ascension
18h 58m 25s
True Declination
0° 00' 00"
Sunlit
Object was in full shadow at epoch
Visualization orbit readout
Latitude
Unknown
Longitude
Unknown
Altitude
Unknown
Speed
Unknown
Apparent Right ascension
Unknown
Apparent Declination
Unknown
Sunlit
N/A
Visualization observer readout
Local Sidereal Time
23:19:10
Azimuth
Unknown
Elevation
Unknown
Doppler factor
Unknown
Orbital elements
Apogee altitude
198.721 km
Perigee altitude
176.556 km
Semi-major axis
6,565.776 km
Eccentricity
0.00169
Inclination
97.3455°
RAAN
284.6067°
Arg. of periapsis
270.728°
True anomaly
89.40141°
Mean anomaly
89.208°
Eccentric anomaly
89.3047°
Mean motion
4.07957 °/min
Orbital period
88.24 mins
BSTAR
0.0014558
Loading maneuver chart data...
Computing Atmospheric mass density...
Loading historical data...
Loading historical data...
Loading historical data...
Loading historical data...
Loading historical data...
Loading historical data...
Loading historical data...

Documentation

Showing up to 5 results
|